East Milton, MA

7:27 AM EDT on July 25, 2017 (GMT -0400)
East Milton

Weather History for KMQE - February, 2013

Change the Weather History Date:

Friday, February 1, 2013

  Actual Average (KOWD) Record (KOWD)
Temperature  
Mean Temperature 24 °F -  
Max Temperature 30 °F 34 °F 66 °F (2016)
Min Temperature 19 °F 17 °F -4 °F (2005)
Degree Days  
Heating Degree Days 40    
Moisture  
Dew Point 7 °F    
Average Humidity 45    
Maximum Humidity 56    
Minimum Humidity 32    
Precipitation  
Precipitation 0.00 in - - ()
Sea Level Pressure  
Sea Level Pressure 29.82 in    
Wind  
Wind Speed 16 mph (West)    
Max Wind Speed 22 mph    
Max Gust Speed 36 mph    
Averages and records for this station are not official NWS values.
T = Trace of Precipitation, MM = Missing Value Source: NWS Daily Summary

Daily Weather History Graph

Daily Weather History Graph

Search for Another Location

Airport or City:

Trip Planner

Search our weather history database for the weather conditions in past years. The results will help you decide how hot, cold, wet, or windy it might be!

Date:

Astronomy

Feb. 01, 2013 Rise Set
Actual Time 6:57 AM EST 4:59 PM EST
Civil Twilight 6:27 AM EST 5:28 PM EST
Nautical Twilight 5:54 AM EST 6:02 PM EST
Astronomical Twilight 5:21 AM EST 6:35 PM EST
Moon 11:11 PM EST (2/1) 9:21 AM EST (2/1)
Length of Visible Light 11h 01m
Length of Day
10h 01m
Waning Gibbous, 70% of the Moon is Illuminated
Feb 1
Waning Gibbous
Feb 3
Last Quarter
Feb 10
New
Feb 17
First Quarter
Feb 25
Full

Hourly Weather History & Observations

Time (EST) Temp. Windchill Dew Point Humidity Pressure Visibility Wind Dir Wind Speed Gust Speed Precip Events Conditions
12:54 AM 28.9 °F 15.8 °F 15.1 °F 56% 29.61 in - West 20.7 mph 35.7 mph N/A   Unknown
1:54 AM 28.0 °F 17.0 °F 12.9 °F 53% 29.63 in - West 13.8 mph 23.0 mph N/A   Unknown
2:54 AM 28.0 °F 16.5 °F 12.9 °F 53% 29.65 in - WSW 15.0 mph 26.5 mph N/A   Unknown
3:54 AM 27.0 °F 16.7 °F 10.0 °F 49% 29.67 in - WSW 11.5 mph 19.6 mph N/A   Unknown
4:54 AM 26.1 °F 14.0 °F 10.9 °F 53% 29.68 in - WSW 15.0 mph 26.5 mph N/A   Unknown
5:54 AM 25.0 °F 12.2 °F 8.1 °F 49% 29.70 in - WSW 16.1 mph 26.5 mph N/A   Unknown
6:54 AM 25.0 °F 13.1 °F 8.1 °F 49% 29.72 in - WSW 13.8 mph 26.5 mph N/A   Unknown
7:54 AM 26.1 °F 14.0 °F 8.1 °F 47% 29.76 in - WSW 15.0 mph 27.6 mph N/A   Unknown
8:54 AM 27.0 °F 13.2 °F 10.0 °F 49% 29.80 in - WSW 20.7 mph 29.9 mph N/A   Unknown
9:54 AM 28.0 °F 14.3 °F 10.9 °F 49% 29.78 in - West 21.9 mph 31.1 mph N/A   Unknown
10:54 AM 28.9 °F 15.4 °F 8.1 °F 41% 29.80 in - West 21.9 mph 28.8 mph N/A   Unknown
11:54 AM 30.0 °F 17.9 °F 3.9 °F 33% 29.78 in - WNW 18.4 mph 28.8 mph N/A   Unknown
12:54 PM 30.9 °F 22.2 °F 3.9 °F 32% 29.75 in - WNW 10.4 mph 20.7 mph N/A   Unknown
1:54 PM 30.0 °F 21.1 °F 3.9 °F 33% 29.77 in - NW 10.4 mph - N/A   Unknown
2:54 PM 28.9 °F 18.2 °F 3.9 °F 35% 29.79 in - NW 13.8 mph 25.3 mph N/A   Unknown
3:54 PM 28.0 °F 16.5 °F 3.9 °F 36% 29.82 in - WNW 15.0 mph 27.6 mph N/A   Unknown
4:54 PM 27.0 °F 16.7 °F 5.0 °F 39% 29.86 in - WNW 11.5 mph 26.5 mph N/A   Unknown
5:54 PM 26.1 °F 14.0 °F 5.0 °F 41% 29.91 in - WNW 15.0 mph 24.2 mph N/A   Unknown
6:54 PM 25.0 °F 10.2 °F 3.9 °F 41% 29.96 in - WNW 21.9 mph 31.1 mph N/A   Unknown
7:54 PM 25.0 °F 14.2 °F 6.1 °F 45% 30.00 in - WNW 11.5 mph 24.2 mph N/A   Unknown
8:54 PM 23.0 °F 8.3 °F 5.0 °F 46% 30.02 in - WNW 19.6 mph 31.1 mph N/A   Unknown
9:54 PM 21.0 °F 6.2 °F 1.9 °F 44% 30.05 in - WNW 18.4 mph 26.5 mph N/A   Unknown
10:54 PM 19.9 °F 7.3 °F 3.9 °F 50% 30.07 in - WNW 12.7 mph 25.3 mph N/A   Unknown
11:54 PM 19.0 °F 4.5 °F 3.0 °F 50% 30.08 in - WNW 16.1 mph 27.6 mph N/A   Unknown